Time,TemperatureF,DewpointF,PressureIn,WindDirection,WindDirectionDegrees,WindSpeedMPH,WindSpeedGustMPH,Humidity,HourlyPrecipIn,Conditions,Clouds,dailyrainin,SoftwareType,DateUTC
2013-04-03 00:02:00,38.0,28.0,30.27,NE,45,7.0,7.0,65,0.00,,,0.00,Rainwise IP-100,2013-04-03 05:02:00,
2013-04-03 00:07:00,38.0,29.0,30.27,NNE,22,6.0,7.0,69,0.00,,,0.00,Rainwise IP-100,2013-04-03 05:07:00,
2013-04-03 00:12:00,37.0,31.0,30.27,North,360,6.0,7.0,76,0.00,,,0.00,Rainwise IP-100,2013-04-03 05:12:00,
2013-04-03 00:17:00,37.0,31.0,30.27,North,360,4.0,6.0,77,0.00,,,0.00,Rainwise IP-100,2013-04-03 05:17:00,
2013-04-03 00:22:00,37.0,31.0,30.28,North,360,4.0,5.0,78,0.00,,,0.00,Rainwise IP-100,2013-04-03 05:22:00,
2013-04-03 00:27:00,36.0,31.0,30.28,North,360,3.0,5.0,82,0.00,,,0.00,Rainwise IP-100,2013-04-03 05:27:00,
2013-04-03 00:32:00,36.0,31.0,30.28,NNE,22,3.0,5.0,82,0.00,,,0.00,Rainwise IP-100,2013-04-03 05:32:00,
2013-04-03 00:37:00,37.0,28.0,30.28,NE,45,5.0,6.0,68,0.00,,,0.00,Rainwise IP-100,2013-04-03 05:37:00,
2013-04-03 00:42:00,37.0,24.0,30.29,NNE,22,4.0,6.0,61,0.00,,,0.00,Rainwise IP-100,2013-04-03 05:42:00,
2013-04-03 00:47:00,37.0,28.0,30.29,North,360,6.0,7.0,68,0.00,,,0.00,Rainwise IP-100,2013-04-03 05:47:00,
2013-04-03 00:52:00,37.0,29.0,30.29,North,360,5.0,7.0,73,0.00,,,0.00,Rainwise IP-100,2013-04-03 05:52:00,
2013-04-03 00:57:00,37.0,26.0,30.29,North,360,6.0,6.0,65,0.00,,,0.00,Rainwise IP-100,2013-04-03 05:57:00,
2013-04-03 01:02:00,37.0,28.0,30.29,North,360,5.0,6.0,69,0.00,,,0.00,Rainwise IP-100,2013-04-03 06:02:00,
2013-04-03 01:07:00,36.0,23.0,30.29,North,360,5.0,6.0,56,0.00,,,0.00,Rainwise IP-100,2013-04-03 06:07:00,
2013-04-03 01:12:00,37.0,24.0,30.29,NNE,22,6.0,7.0,59,0.00,,,0.00,Rainwise IP-100,2013-04-03 06:12:00,
2013-04-03 01:17:00,36.0,31.0,30.29,NNE,22,4.0,6.0,79,0.00,,,0.00,Rainwise IP-100,2013-04-03 06:17:00,
2013-04-03 01:22:00,36.0,29.0,30.28,NNE,22,4.0,5.0,77,0.00,,,0.00,Rainwise IP-100,2013-04-03 06:22:00,
2013-04-03 01:27:00,36.0,32.0,30.28,NNE,22,5.0,6.0,84,0.00,,,0.00,Rainwise IP-100,2013-04-03 06:27:00,
2013-04-03 01:32:00,36.0,32.0,30.28,NNE,22,2.0,6.0,85,0.00,,,0.00,Rainwise IP-100,2013-04-03 06:32:00,
2013-04-03 01:37:00,35.0,31.0,30.28,NNE,22,4.0,4.0,84,0.00,,,0.00,Rainwise IP-100,2013-04-03 06:37:00,
2013-04-03 01:42:00,35.0,31.0,30.28,NE,45,1.0,4.0,85,0.00,,,0.00,Rainwise IP-100,2013-04-03 06:42:00,
2013-04-03 01:47:00,34.0,31.0,30.28,NNE,22,3.0,4.0,86,0.00,,,0.00,Rainwise IP-100,2013-04-03 06:47:00,
2013-04-03 01:52:00,35.0,31.0,30.28,North,360,4.0,5.0,87,0.00,,,0.00,Rainwise IP-100,2013-04-03 06:52:00,
2013-04-03 01:57:00,34.0,31.0,30.28,North,360,4.0,5.0,86,0.00,,,0.00,Rainwise IP-100,2013-04-03 06:57:00,
2013-04-03 02:02:00,34.0,31.0,30.28,North,360,2.0,5.0,87,0.00,,,0.00,Rainwise IP-100,2013-04-03 07:02:00,
2013-04-03 02:07:00,33.0,31.0,30.28,North,360,4.0,5.0,89,0.00,,,0.00,Rainwise IP-100,2013-04-03 07:07:00,
2013-04-03 02:12:00,34.0,32.0,30.28,North,360,1.0,4.0,88,0.00,,,0.00,Rainwise IP-100,2013-04-03 07:12:00,
2013-04-03 02:17:00,33.0,31.0,30.28,North,360,2.0,3.0,87,0.00,,,0.00,Rainwise IP-100,2013-04-03 07:17:00,
2013-04-03 02:22:00,33.0,31.0,30.29,North,360,2.0,3.0,87,0.00,,,0.00,Rainwise IP-100,2013-04-03 07:22:00,
2013-04-03 02:27:00,33.0,31.0,30.29,North,360,4.0,6.0,89,0.00,,,0.00,Rainwise IP-100,2013-04-03 07:27:00,
2013-04-03 02:32:00,33.0,29.0,30.28,North,360,6.0,6.0,86,0.00,,,0.00,Rainwise IP-100,2013-04-03 07:32:00,
2013-04-03 02:37:00,33.0,31.0,30.28,North,360,6.0,8.0,90,0.00,,,0.00,Rainwise IP-100,2013-04-03 07:37:00,
2013-04-03 02:42:00,33.0,31.0,30.28,North,360,7.0,7.0,90,0.00,,,0.00,Rainwise IP-100,2013-04-03 07:42:00,
2013-04-03 02:47:00,33.0,31.0,30.28,North,360,6.0,7.0,90,0.00,,,0.00,Rainwise IP-100,2013-04-03 07:47:00,
2013-04-03 02:52:00,33.0,31.0,30.28,North,360,4.0,6.0,89,0.00,,,0.00,Rainwise IP-100,2013-04-03 07:52:00,
2013-04-03 02:57:00,33.0,31.0,30.28,North,360,3.0,6.0,89,0.00,,,0.00,Rainwise IP-100,2013-04-03 07:57:00,
2013-04-03 03:02:00,33.0,29.0,30.29,NNW,337,6.0,6.0,83,0.00,,,0.00,Rainwise IP-100,2013-04-03 08:02:00,
2013-04-03 03:07:00,33.0,26.0,30.29,North,360,6.0,7.0,72,0.00,,,0.00,Rainwise IP-100,2013-04-03 08:07:00,
2013-04-03 03:12:00,33.0,29.0,30.27,North,360,6.0,7.0,86,0.00,,,0.00,Rainwise IP-100,2013-04-03 08:12:00,
2013-04-03 03:17:00,33.0,29.0,30.27,North,360,6.0,6.0,86,0.00,,,0.00,Rainwise IP-100,2013-04-03 08:17:00,
2013-04-03 03:22:00,33.0,31.0,30.27,North,360,3.0,6.0,88,0.00,,,0.00,Rainwise IP-100,2013-04-03 08:22:00,
2013-04-03 03:27:00,33.0,31.0,30.27,North,360,4.0,5.0,90,0.00,,,0.00,Rainwise IP-100,2013-04-03 08:27:00,
2013-04-03 03:32:00,33.0,29.0,30.27,North,360,6.0,7.0,85,0.00,,,0.00,Rainwise IP-100,2013-04-03 08:32:00,
2013-04-03 03:37:00,33.0,31.0,30.27,NNE,22,6.0,7.0,90,0.00,,,0.00,Rainwise IP-100,2013-04-03 08:37:00,
2013-04-03 03:42:00,33.0,31.0,30.26,North,360,6.0,6.0,91,0.00,,,0.00,Rainwise IP-100,2013-04-03 08:42:00,
2013-04-03 03:47:00,33.0,31.0,30.26,North,360,5.0,6.0,91,0.00,,,0.00,Rainwise IP-100,2013-04-03 08:47:00,
2013-04-03 03:52:00,33.0,32.0,30.26,North,360,5.0,6.0,93,0.00,,,0.00,Rainwise IP-100,2013-04-03 08:52:00,
2013-04-03 03:57:00,32.0,31.0,30.26,North,360,5.0,6.0,93,0.00,,,0.00,Rainwise IP-100,2013-04-03 08:57:00,
2013-04-03 04:02:00,33.0,32.0,30.26,North,360,5.0,6.0,94,0.00,,,0.00,Rainwise IP-100,2013-04-03 09:02:00,
2013-04-03 04:07:00,33.0,26.0,30.26,North,360,6.0,6.0,76,0.00,,,0.00,Rainwise IP-100,2013-04-03 09:07:00,
2013-04-03 04:12:00,33.0,29.0,30.26,North,360,5.0,6.0,86,0.00,,,0.00,Rainwise IP-100,2013-04-03 09:12:00,
2013-04-03 04:17:00,32.0,29.0,30.26,North,360,6.0,6.0,91,0.00,,,0.00,Rainwise IP-100,2013-04-03 09:17:00,
2013-04-03 04:22:00,33.0,31.0,30.25,NNE,22,7.0,7.0,88,0.00,,,0.00,Rainwise IP-100,2013-04-03 09:22:00,
2013-04-03 04:27:00,33.0,29.0,30.25,NNE,22,6.0,7.0,86,0.00,,,0.00,Rainwise IP-100,2013-04-03 09:27:00,
2013-04-03 04:32:00,33.0,28.0,30.25,NE,45,5.0,7.0,78,0.00,,,0.00,Rainwise IP-100,2013-04-03 09:32:00,
2013-04-03 04:37:00,33.0,26.0,30.25,NNE,22,7.0,8.0,75,0.00,,,0.00,Rainwise IP-100,2013-04-03 09:37:00,
2013-04-03 04:42:00,33.0,26.0,30.25,NE,45,7.0,8.0,72,0.00,,,0.00,Rainwise IP-100,2013-04-03 09:42:00,
2013-04-03 04:47:00,33.0,26.0,30.25,NE,45,6.0,7.0,72,0.00,,,0.00,Rainwise IP-100,2013-04-03 09:47:00,
2013-04-03 04:52:00,34.0,26.0,30.25,NE,45,6.0,9.0,68,0.00,,,0.00,Rainwise IP-100,2013-04-03 09:52:00,
2013-04-03 04:57:00,34.0,26.0,30.25,NNE,22,7.0,9.0,70,0.00,,,0.00,Rainwise IP-100,2013-04-03 09:57:00,
2013-04-03 05:02:00,34.0,28.0,30.25,NNE,22,6.0,7.0,74,0.00,,,0.00,Rainwise IP-100,2013-04-03 10:02:00,
2013-04-03 05:07:00,33.0,28.0,30.25,NNE,22,6.0,7.0,80,0.00,,,0.00,Rainwise IP-100,2013-04-03 10:07:00,
2013-04-03 05:12:00,33.0,28.0,30.26,NE,45,6.0,7.0,80,0.00,,,0.00,Rainwise IP-100,2013-04-03 10:12:00,
2013-04-03 05:17:00,33.0,24.0,30.26,NE,45,8.0,9.0,69,0.00,,,0.00,Rainwise IP-100,2013-04-03 10:17:00,
2013-04-03 05:22:00,34.0,24.0,30.27,ENE,67,6.0,9.0,67,0.00,,,0.00,Rainwise IP-100,2013-04-03 10:22:00,
2013-04-03 05:27:00,34.0,24.0,30.27,ENE,67,6.0,8.0,65,0.00,,,0.00,Rainwise IP-100,2013-04-03 10:27:00,
2013-04-03 05:32:00,34.0,24.0,30.28,ENE,67,7.0,8.0,66,0.00,,,0.00,Rainwise IP-100,2013-04-03 10:32:00,
2013-04-03 05:37:00,34.0,26.0,30.28,ENE,67,2.0,9.0,69,0.00,,,0.00,Rainwise IP-100,2013-04-03 10:37:00,
2013-04-03 05:42:00,33.0,24.0,30.28,ENE,67,8.0,8.0,70,0.00,,,0.00,Rainwise IP-100,2013-04-03 10:42:00,
2013-04-03 05:47:00,34.0,24.0,30.28,SSE,157,2.0,10.0,66,0.00,,,0.00,Rainwise IP-100,2013-04-03 10:47:00,
2013-04-03 05:52:00,34.0,24.0,30.29,NE,45,6.0,12.0,66,0.00,,,0.00,Rainwise IP-100,2013-04-03 10:52:00,
2013-04-03 05:57:00,34.0,24.0,30.29,NNE,22,9.0,10.0,66,0.00,,,0.00,Rainwise IP-100,2013-04-03 10:57:00,
2013-04-03 06:02:00,34.0,24.0,30.29,ENE,67,8.0,9.0,65,0.00,,,0.00,Rainwise IP-100,2013-04-03 11:02:00,
2013-04-03 06:07:00,34.0,24.0,30.29,NNE,22,9.0,11.0,66,0.00,,,0.00,Rainwise IP-100,2013-04-03 11:07:00,
2013-04-03 06:12:00,34.0,24.0,30.30,NNE,22,9.0,11.0,66,0.00,,,0.00,Rainwise IP-100,2013-04-03 11:12:00,
2013-04-03 06:17:00,34.0,26.0,30.30,NNE,22,7.0,11.0,68,0.00,,,0.00,Rainwise IP-100,2013-04-03 11:17:00,
2013-04-03 06:22:00,34.0,26.0,30.31,NNE,22,8.0,9.0,69,0.00,,,0.00,Rainwise IP-100,2013-04-03 11:22:00,
2013-04-03 06:27:00,33.0,26.0,30.31,NNE,22,7.0,9.0,75,0.00,,,0.00,Rainwise IP-100,2013-04-03 11:27:00,
2013-04-03 06:32:00,33.0,26.0,30.32,NE,45,5.0,8.0,76,0.00,,,0.00,Rainwise IP-100,2013-04-03 11:32:00,
2013-04-03 06:37:00,33.0,26.0,30.32,NNE,22,6.0,7.0,74,0.00,,,0.00,Rainwise IP-100,2013-04-03 11:37:00,
2013-04-03 06:42:00,33.0,26.0,30.33,North,360,5.0,7.0,75,0.00,,,0.00,Rainwise IP-100,2013-04-03 11:42:00,
2013-04-03 06:47:00,33.0,28.0,30.33,NNE,22,4.0,7.0,78,0.00,,,0.00,Rainwise IP-100,2013-04-03 11:47:00,
2013-04-03 06:52:00,34.0,28.0,30.33,NNE,22,4.0,6.0,76,0.00,,,0.00,Rainwise IP-100,2013-04-03 11:52:00,
2013-04-03 06:57:00,34.0,28.0,30.33,NE,45,6.0,6.0,76,0.00,,,0.00,Rainwise IP-100,2013-04-03 11:57:00,
2013-04-03 07:02:00,34.0,29.0,30.34,NE,45,4.0,6.0,80,0.00,,,0.00,Rainwise IP-100,2013-04-03 12:02:00,
2013-04-03 07:07:00,34.0,29.0,30.34,NE,45,6.0,6.0,78,0.00,,,0.00,Rainwise IP-100,2013-04-03 12:07:00,
2013-04-03 07:12:00,34.0,29.0,30.34,NE,45,6.0,7.0,80,0.00,,,0.00,Rainwise IP-100,2013-04-03 12:12:00,
2013-04-03 07:17:00,34.0,29.0,30.34,NNE,22,6.0,7.0,78,0.00,,,0.00,Rainwise IP-100,2013-04-03 12:17:00,
2013-04-03 07:22:00,34.0,28.0,30.34,NNE,22,6.0,7.0,73,0.00,,,0.00,Rainwise IP-100,2013-04-03 12:22:00,
2013-04-03 07:27:00,34.0,26.0,30.34,NNE,22,7.0,8.0,72,0.00,,,0.00,Rainwise IP-100,2013-04-03 12:27:00,
2013-04-03 07:32:00,35.0,26.0,30.34,NE,45,2.0,7.0,71,0.00,,,0.00,Rainwise IP-100,2013-04-03 12:32:00,
2013-04-03 07:37:00,35.0,26.0,30.34,NE,45,6.0,7.0,68,0.00,,,0.00,Rainwise IP-100,2013-04-03 12:37:00,
2013-04-03 07:42:00,35.0,24.0,30.35,NE,45,7.0,8.0,65,0.00,,,0.00,Rainwise IP-100,2013-04-03 12:42:00,
2013-04-03 07:47:00,36.0,24.0,30.35,NNE,22,7.0,8.0,63,0.00,,,0.00,Rainwise IP-100,2013-04-03 12:47:00,
2013-04-03 07:52:00,37.0,26.0,30.35,NNE,22,7.0,8.0,62,0.00,,,0.00,Rainwise IP-100,2013-04-03 12:52:00,
2013-04-03 07:57:00,37.0,26.0,30.35,NE,45,7.0,9.0,62,0.00,,,0.00,Rainwise IP-100,2013-04-03 12:57:00,
2013-04-03 08:02:00,37.0,24.0,30.35,NE,45,7.0,9.0,59,0.00,,,0.00,Rainwise IP-100,2013-04-03 13:02:00,
2013-04-03 08:07:00,38.0,24.0,30.35,NE,45,5.0,8.0,58,0.00,,,0.00,Rainwise IP-100,2013-04-03 13:07:00,
2013-04-03 08:12:00,39.0,24.0,30.35,NNE,22,7.0,8.0,56,0.00,,,0.00,Rainwise IP-100,2013-04-03 13:12:00,
2013-04-03 08:17:00,39.0,24.0,30.35,NE,45,5.0,8.0,56,0.00,,,0.00,Rainwise IP-100,2013-04-03 13:17:00,
2013-04-03 08:22:00,39.0,26.0,30.35,ENE,67,1.0,9.0,57,0.00,,,0.00,Rainwise IP-100,2013-04-03 13:22:00,
2013-04-03 08:27:00,39.0,24.0,30.35,NE,45,10.0,10.0,54,0.00,,,0.00,Rainwise IP-100,2013-04-03 13:27:00,
2013-04-03 08:32:00,39.0,24.0,30.34,ENE,67,8.0,12.0,53,0.00,,,0.00,Rainwise IP-100,2013-04-03 13:32:00,
2013-04-03 08:37:00,40.0,26.0,30.34,East,90,5.0,13.0,55,0.00,,,0.00,Rainwise IP-100,2013-04-03 13:37:00,
2013-04-03 08:42:00,40.0,24.0,30.34,NE,45,7.0,14.0,53,0.00,,,0.00,Rainwise IP-100,2013-04-03 13:42:00,
2013-04-03 08:47:00,41.0,24.0,30.34,ENE,67,9.0,14.0,50,0.00,,,0.00,Rainwise IP-100,2013-04-03 13:47:00,
2013-04-03 08:52:00,42.0,26.0,30.33,ENE,67,9.0,12.0,52,0.00,,,0.00,Rainwise IP-100,2013-04-03 13:52:00,
2013-04-03 08:57:00,41.0,24.0,30.33,NE,45,13.0,13.0,50,0.00,,,0.00,Rainwise IP-100,2013-04-03 13:57:00,
2013-04-03 09:02:00,42.0,26.0,30.32,ENE,67,10.0,16.0,50,0.00,,,0.00,Rainwise IP-100,2013-04-03 14:02:00,
2013-04-03 09:07:00,43.0,26.0,30.32,NE,45,6.0,16.0,51,0.00,,,0.00,Rainwise IP-100,2013-04-03 14:07:00,
2013-04-03 09:12:00,43.0,24.0,30.32,SE,135,4.0,13.0,46,0.00,,,0.00,Rainwise IP-100,2013-04-03 14:12:00,
2013-04-03 09:17:00,43.0,24.0,30.32,ENE,67,12.0,14.0,48,0.00,,,0.00,Rainwise IP-100,2013-04-03 14:17:00,
2013-04-03 09:22:00,44.0,26.0,30.33,NE,45,11.0,13.0,47,0.00,,,0.00,Rainwise IP-100,2013-04-03 14:22:00,
2013-04-03 09:27:00,44.0,24.0,30.33,ESE,112,6.0,15.0,46,0.00,,,0.00,Rainwise IP-100,2013-04-03 14:27:00,
2013-04-03 09:32:00,44.0,23.0,30.31,NE,45,13.0,15.0,40,0.00,,,0.00,Rainwise IP-100,2013-04-03 14:32:00,
2013-04-03 09:37:00,45.0,21.0,30.31,SE,135,3.0,16.0,37,0.00,,,0.00,Rainwise IP-100,2013-04-03 14:37:00,
2013-04-03 09:42:00,45.0,23.0,30.31,NE,45,7.0,19.0,41,0.00,,,0.00,Rainwise IP-100,2013-04-03 14:42:00,
2013-04-03 09:47:00,45.0,23.0,30.31,NE,45,17.0,17.0,39,0.00,,,0.00,Rainwise IP-100,2013-04-03 14:47:00,
2013-04-03 09:52:00,45.0,21.0,30.31,NE,45,12.0,23.0,37,0.00,,,0.00,Rainwise IP-100,2013-04-03 14:52:00,
2013-04-03 09:57:00,45.0,21.0,30.31,ENE,67,11.0,21.0,36,0.00,,,0.00,Rainwise IP-100,2013-04-03 14:57:00,
2013-04-03 10:02:00,45.0,21.0,30.31,NW,315,7.0,21.0,35,0.00,,,0.00,Rainwise IP-100,2013-04-03 15:02:00,
2013-04-03 10:07:00,45.0,21.0,30.31,East,90,9.0,22.0,37,0.00,,,0.00,Rainwise IP-100,2013-04-03 15:07:00,
2013-04-03 10:12:00,46.0,21.0,30.31,ENE,67,12.0,23.0,35,0.00,,,0.00,Rainwise IP-100,2013-04-03 15:12:00,
2013-04-03 10:17:00,46.0,21.0,30.31,ENE,67,12.0,22.0,34,0.00,,,0.00,Rainwise IP-100,2013-04-03 15:17:00,
2013-04-03 10:22:00,47.0,23.0,30.30,NNE,22,13.0,19.0,37,0.00,,,0.00,Rainwise IP-100,2013-04-03 15:22:00,
2013-04-03 10:27:00,47.0,23.0,30.30,East,90,9.0,17.0,37,0.00,,,0.00,Rainwise IP-100,2013-04-03 15:27:00,
2013-04-03 10:32:00,48.0,24.0,30.30,ENE,67,3.0,20.0,37,0.00,,,0.00,Rainwise IP-100,2013-04-03 15:32:00,
2013-04-03 10:37:00,47.0,21.0,30.30,NE,45,19.0,24.0,34,0.00,,,0.00,Rainwise IP-100,2013-04-03 15:37:00,
2013-04-03 10:42:00,46.0,21.0,30.29,NE,45,10.0,24.0,37,0.00,,,0.00,Rainwise IP-100,2013-04-03 15:42:00,
2013-04-03 10:47:00,47.0,21.0,30.29,SE,135,3.0,22.0,34,0.00,,,0.00,Rainwise IP-100,2013-04-03 15:47:00,
2013-04-03 10:52:00,47.0,21.0,30.29,East,90,6.0,22.0,34,0.00,,,0.00,Rainwise IP-100,2013-04-03 15:52:00,
2013-04-03 10:58:00,47.0,18.0,30.29,NNE,22,6.0,23.0,32,0.00,,,0.00,Rainwise IP-100,2013-04-03 15:58:00,
2013-04-03 11:03:00,48.0,21.0,30.30,SW,225,3.0,23.0,32,0.00,,,0.00,Rainwise IP-100,2013-04-03 16:03:00,
2013-04-03 11:08:00,48.0,21.0,30.30,NNE,22,9.0,19.0,31,0.00,,,0.00,Rainwise IP-100,2013-04-03 16:08:00,
2013-04-03 11:13:00,49.0,21.0,30.30,NE,45,7.0,16.0,31,0.00,,,0.00,Rainwise IP-100,2013-04-03 16:13:00,
2013-04-03 11:18:00,49.0,23.0,30.30,NE,45,10.0,17.0,34,0.00,,,0.00,Rainwise IP-100,2013-04-03 16:18:00,
2013-04-03 11:23:00,49.0,21.0,30.31,NE,45,6.0,16.0,30,0.00,,,0.00,Rainwise IP-100,2013-04-03 16:23:00,
2013-04-03 11:28:00,48.0,18.0,30.31,East,90,10.0,22.0,30,0.00,,,0.00,Rainwise IP-100,2013-04-03 16:28:00,
2013-04-03 11:33:00,48.0,21.0,30.30,NE,45,25.0,30.0,31,0.00,,,0.00,Rainwise IP-100,2013-04-03 16:33:00,
2013-04-03 11:38:00,49.0,21.0,30.30,NE,45,22.0,25.0,32,0.00,,,0.00,Rainwise IP-100,2013-04-03 16:38:00,
2013-04-03 11:43:00,49.0,23.0,30.28,SE,135,4.0,23.0,33,0.00,,,0.00,Rainwise IP-100,2013-04-03 16:43:00,
2013-04-03 11:48:00,49.0,21.0,30.28,NNE,22,19.0,19.0,32,0.00,,,0.00,Rainwise IP-100,2013-04-03 16:48:00,
2013-04-03 11:53:00,50.0,21.0,30.28,NE,45,12.0,22.0,30,0.00,,,0.00,Rainwise IP-100,2013-04-03 16:53:00,
2013-04-03 11:58:00,48.0,21.0,30.28,NE,45,6.0,23.0,31,0.00,,,0.00,Rainwise IP-100,2013-04-03 16:58:00,
2013-04-03 12:03:00,49.0,21.0,30.29,NW,315,6.0,18.0,30,0.00,,,0.00,Rainwise IP-100,2013-04-03 17:03:00,
2013-04-03 12:08:00,50.0,21.0,30.29,ESE,112,9.0,20.0,31,0.00,,,0.00,Rainwise IP-100,2013-04-03 17:08:00,
2013-04-03 12:13:00,50.0,23.0,30.28,ENE,67,6.0,18.0,32,0.00,,,0.00,Rainwise IP-100,2013-04-03 17:13:00,
2013-04-03 12:18:00,49.0,18.0,30.28,ENE,67,9.0,23.0,29,0.00,,,0.00,Rainwise IP-100,2013-04-03 17:18:00,
2013-04-03 12:23:00,49.0,21.0,30.28,East,90,9.0,24.0,30,0.00,,,0.00,Rainwise IP-100,2013-04-03 17:23:00,
2013-04-03 12:28:00,50.0,21.0,30.28,NE,45,15.0,19.0,30,0.00,,,0.00,Rainwise IP-100,2013-04-03 17:28:00,
2013-04-03 12:33:00,51.0,23.0,30.28,NE,45,10.0,22.0,31,0.00,,,0.00,Rainwise IP-100,2013-04-03 17:33:00,
2013-04-03 12:38:00,49.0,18.0,30.28,NE,45,17.0,25.0,29,0.00,,,0.00,Rainwise IP-100,2013-04-03 17:38:00,
2013-04-03 12:43:00,50.0,23.0,30.29,SSE,157,3.0,25.0,33,0.00,,,0.00,Rainwise IP-100,2013-04-03 17:43:00,
2013-04-03 12:48:00,51.0,21.0,30.29,ESE,112,9.0,24.0,30,0.00,,,0.00,Rainwise IP-100,2013-04-03 17:48:00,
2013-04-03 12:53:00,51.0,23.0,30.27,NE,45,7.0,16.0,32,0.00,,,0.00,Rainwise IP-100,2013-04-03 17:53:00,
2013-04-03 12:58:00,50.0,18.0,30.27,ENE,67,14.0,20.0,29,0.00,,,0.00,Rainwise IP-100,2013-04-03 17:58:00,
2013-04-03 13:03:00,51.0,23.0,30.26,NE,45,14.0,26.0,31,0.00,,,0.00,Rainwise IP-100,2013-04-03 18:03:00,
2013-04-03 13:08:00,51.0,21.0,30.26,South,180,5.0,18.0,30,0.00,,,0.00,Rainwise IP-100,2013-04-03 18:08:00,
2013-04-03 13:13:00,51.0,21.0,30.25,ENE,67,14.0,22.0,29,0.00,,,0.00,Rainwise IP-100,2013-04-03 18:13:00,
2013-04-03 13:18:00,50.0,18.0,30.25,NE,45,16.0,20.0,29,0.00,,,0.00,Rainwise IP-100,2013-04-03 18:18:00,
2013-04-03 13:23:00,50.0,21.0,30.26,NE,45,19.0,22.0,30,0.00,,,0.00,Rainwise IP-100,2013-04-03 18:23:00,
2013-04-03 13:28:00,51.0,24.0,30.26,NE,45,15.0,20.0,35,0.00,,,0.00,Rainwise IP-100,2013-04-03 18:28:00,
2013-04-03 13:33:00,51.0,23.0,30.27,NE,45,10.0,23.0,31,0.00,,,0.00,Rainwise IP-100,2013-04-03 18:33:00,
2013-04-03 13:38:00,51.0,21.0,30.27,NE,45,7.0,22.0,30,0.00,,,0.00,Rainwise IP-100,2013-04-03 18:38:00,
2013-04-03 13:43:00,51.0,21.0,30.27,NE,45,9.0,18.0,29,0.00,,,0.00,Rainwise IP-100,2013-04-03 18:43:00,
2013-04-03 13:48:00,51.0,21.0,30.27,North,360,16.0,22.0,30,0.00,,,0.00,Rainwise IP-100,2013-04-03 18:48:00,
2013-04-03 13:53:00,52.0,23.0,30.26,East,90,7.0,20.0,31,0.00,,,0.00,Rainwise IP-100,2013-04-03 18:53:00,
2013-04-03 13:58:00,50.0,18.0,30.26,NE,45,19.0,22.0,28,0.00,,,0.00,Rainwise IP-100,2013-04-03 18:58:00,
2013-04-03 14:03:00,51.0,21.0,30.27,NE,45,10.0,20.0,29,0.00,,,0.00,Rainwise IP-100,2013-04-03 19:03:00,
2013-04-03 14:08:00,51.0,21.0,30.27,NE,45,22.0,22.0,28,0.00,,,0.00,Rainwise IP-100,2013-04-03 19:08:00,
2013-04-03 14:13:00,52.0,23.0,30.26,East,90,5.0,22.0,30,0.00,,,0.00,Rainwise IP-100,2013-04-03 19:13:00,
2013-04-03 14:18:00,52.0,21.0,30.26,SE,135,5.0,16.0,29,0.00,,,0.00,Rainwise IP-100,2013-04-03 19:18:00,
2013-04-03 14:23:00,52.0,24.0,30.26,NE,45,18.0,19.0,33,0.00,,,0.00,Rainwise IP-100,2013-04-03 19:23:00,
2013-04-03 14:28:00,52.0,23.0,30.26,NE,45,13.0,21.0,31,0.00,,,0.00,Rainwise IP-100,2013-04-03 19:28:00,
2013-04-03 14:33:00,51.0,21.0,30.26,NE,45,15.0,17.0,30,0.00,,,0.00,Rainwise IP-100,2013-04-03 19:33:00,
2013-04-03 14:38:00,52.0,21.0,30.26,NE,45,12.0,21.0,29,0.00,,,0.00,Rainwise IP-100,2013-04-03 19:38:00,
2013-04-03 14:43:00,52.0,23.0,30.25,South,180,1.0,20.0,30,0.00,,,0.00,Rainwise IP-100,2013-04-03 19:43:00,
2013-04-03 14:48:00,52.0,21.0,30.25,ENE,67,14.0,18.0,29,0.00,,,0.00,Rainwise IP-100,2013-04-03 19:48:00,
2013-04-03 14:53:00,52.0,23.0,30.25,ENE,67,13.0,16.0,32,0.00,,,0.00,Rainwise IP-100,2013-04-03 19:53:00,
2013-04-03 14:58:00,52.0,23.0,30.25,NE,45,12.0,17.0,32,0.00,,,0.00,Rainwise IP-100,2013-04-03 19:58:00,
2013-04-03 15:03:00,51.0,21.0,30.25,NNE,22,13.0,17.0,29,0.00,,,0.00,Rainwise IP-100,2013-04-03 20:03:00,
2013-04-03 15:08:00,52.0,23.0,30.25,ENE,67,11.0,17.0,32,0.00,,,0.00,Rainwise IP-100,2013-04-03 20:08:00,
2013-04-03 15:13:00,53.0,24.0,30.24,ENE,67,6.0,17.0,32,0.00,,,0.00,Rainwise IP-100,2013-04-03 20:13:00,
2013-04-03 15:18:00,53.0,23.0,30.24,ENE,67,12.0,19.0,31,0.00,,,0.00,Rainwise IP-100,2013-04-03 20:18:00,
2013-04-03 15:23:00,53.0,23.0,30.23,East,90,3.0,20.0,31,0.00,,,0.00,Rainwise IP-100,2013-04-03 20:23:00,
2013-04-03 15:28:00,53.0,24.0,30.23,NE,45,9.0,15.0,33,0.00,,,0.00,Rainwise IP-100,2013-04-03 20:28:00,
2013-04-03 15:33:00,53.0,21.0,30.23,ENE,67,12.0,18.0,27,0.00,,,0.00,Rainwise IP-100,2013-04-03 20:33:00,
2013-04-03 15:38:00,52.0,23.0,30.23,NE,45,13.0,18.0,31,0.00,,,0.00,Rainwise IP-100,2013-04-03 20:38:00,
2013-04-03 15:43:00,53.0,23.0,30.23,NNE,22,14.0,18.0,31,0.00,,,0.00,Rainwise IP-100,2013-04-03 20:43:00,
2013-04-03 15:48:00,53.0,23.0,30.23,NE,45,7.0,19.0,31,0.00,,,0.00,Rainwise IP-100,2013-04-03 20:48:00,
2013-04-03 15:53:00,52.0,21.0,30.23,ENE,67,13.0,22.0,29,0.00,,,0.00,Rainwise IP-100,2013-04-03 20:53:00,
2013-04-03 15:58:00,53.0,24.0,30.23,NE,45,13.0,20.0,32,0.00,,,0.00,Rainwise IP-100,2013-04-03 20:58:00,
2013-04-03 16:03:00,53.0,23.0,30.22,NE,45,20.0,20.0,30,0.00,,,0.00,Rainwise IP-100,2013-04-03 21:03:00,
2013-04-03 16:09:00,52.0,21.0,30.22,NE,45,16.0,22.0,29,0.00,,,0.00,Rainwise IP-100,2013-04-03 21:09:00,
2013-04-03 16:14:00,53.0,24.0,30.22,NE,45,10.0,20.0,32,0.00,,,0.00,Rainwise IP-100,2013-04-03 21:14:00,
2013-04-03 16:19:00,53.0,23.0,30.22,NE,45,14.0,20.0,31,0.00,,,0.00,Rainwise IP-100,2013-04-03 21:19:00,
2013-04-03 16:24:00,53.0,23.0,30.21,East,90,7.0,21.0,30,0.00,,,0.00,Rainwise IP-100,2013-04-03 21:24:00,
2013-04-03 16:29:00,53.0,21.0,30.21,East,90,10.0,17.0,28,0.00,,,0.00,Rainwise IP-100,2013-04-03 21:29:00,
2013-04-03 16:34:00,53.0,23.0,30.20,East,90,6.0,17.0,30,0.00,,,0.00,Rainwise IP-100,2013-04-03 21:34:00,
2013-04-03 16:39:00,53.0,23.0,30.20,NE,45,11.0,12.0,30,0.00,,,0.00,Rainwise IP-100,2013-04-03 21:39:00,
2013-04-03 16:44:00,52.0,23.0,30.20,NE,45,17.0,23.0,30,0.00,,,0.00,Rainwise IP-100,2013-04-03 21:44:00,
2013-04-03 16:49:00,53.0,23.0,30.20,NE,45,7.0,24.0,29,0.00,,,0.00,Rainwise IP-100,2013-04-03 21:49:00,
2013-04-03 16:54:00,53.0,23.0,30.19,NE,45,11.0,22.0,30,0.00,,,0.00,Rainwise IP-100,2013-04-03 21:54:00,
2013-04-03 16:59:00,53.0,24.0,30.19,ENE,67,8.0,19.0,32,0.00,,,0.00,Rainwise IP-100,2013-04-03 21:59:00,
2013-04-03 17:04:00,53.0,24.0,30.19,East,90,7.0,13.0,33,0.00,,,0.00,Rainwise IP-100,2013-04-03 22:04:00,
2013-04-03 17:09:00,52.0,21.0,30.19,ENE,67,10.0,21.0,29,0.00,,,0.00,Rainwise IP-100,2013-04-03 22:09:00,
2013-04-03 17:14:00,53.0,24.0,30.19,NE,45,16.0,18.0,32,0.00,,,0.00,Rainwise IP-100,2013-04-03 22:14:00,
2013-04-03 17:19:00,52.0,21.0,30.19,NE,45,10.0,20.0,29,0.00,,,0.00,Rainwise IP-100,2013-04-03 22:19:00,
2013-04-03 17:24:00,52.0,23.0,30.19,NNE,22,12.0,16.0,31,0.00,,,0.00,Rainwise IP-100,2013-04-03 22:24:00,
2013-04-03 17:29:00,52.0,23.0,30.19,NE,45,10.0,16.0,32,0.00,,,0.00,Rainwise IP-100,2013-04-03 22:29:00,
2013-04-03 17:34:00,52.0,23.0,30.19,ESE,112,5.0,17.0,32,0.00,,,0.00,Rainwise IP-100,2013-04-03 22:34:00,
2013-04-03 17:39:00,52.0,23.0,30.19,ESE,112,7.0,16.0,32,0.00,,,0.00,Rainwise IP-100,2013-04-03 22:39:00,
2013-04-03 17:44:00,52.0,23.0,30.19,NE,45,6.0,18.0,31,0.00,,,0.00,Rainwise IP-100,2013-04-03 22:44:00,
2013-04-03 17:49:00,52.0,24.0,30.19,NE,45,9.0,17.0,33,0.00,,,0.00,Rainwise IP-100,2013-04-03 22:49:00,
2013-04-03 17:54:00,52.0,23.0,30.19,NE,45,14.0,17.0,31,0.00,,,0.00,Rainwise IP-100,2013-04-03 22:54:00,
2013-04-03 17:59:00,52.0,26.0,30.19,NE,45,12.0,22.0,35,0.00,,,0.00,Rainwise IP-100,2013-04-03 22:59:00,
2013-04-03 18:04:00,52.0,24.0,30.19,NNW,337,1.0,15.0,33,0.00,,,0.00,Rainwise IP-100,2013-04-03 23:04:00,
2013-04-03 18:09:00,52.0,23.0,30.19,NE,45,10.0,19.0,32,0.00,,,0.00,Rainwise IP-100,2013-04-03 23:09:00,
2013-04-03 18:14:00,52.0,24.0,30.18,NE,45,6.0,20.0,33,0.00,,,0.00,Rainwise IP-100,2013-04-03 23:14:00,
2013-04-03 18:19:00,51.0,23.0,30.18,NNE,22,10.0,14.0,32,0.00,,,0.00,Rainwise IP-100,2013-04-03 23:19:00,
2013-04-03 18:24:00,51.0,24.0,30.19,NE,45,13.0,17.0,35,0.00,,,0.00,Rainwise IP-100,2013-04-03 23:24:00,
2013-04-03 18:29:00,51.0,24.0,30.19,ESE,112,3.0,15.0,34,0.00,,,0.00,Rainwise IP-100,2013-04-03 23:29:00,
2013-04-03 18:34:00,51.0,24.0,30.19,ENE,67,9.0,13.0,33,0.00,,,0.00,Rainwise IP-100,2013-04-03 23:34:00,
2013-04-03 18:39:00,51.0,24.0,30.19,ENE,67,9.0,13.0,34,0.00,,,0.00,Rainwise IP-100,2013-04-03 23:39:00,
2013-04-03 18:45:00,51.0,26.0,30.19,NE,45,5.0,11.0,36,0.00,,,0.00,Rainwise IP-100,2013-04-03 23:45:00,
2013-04-03 18:50:00,51.0,24.0,30.19,North,360,10.0,12.0,34,0.00,,,0.00,Rainwise IP-100,2013-04-03 23:50:00,
2013-04-03 18:55:00,51.0,26.0,30.19,North,360,2.0,12.0,36,0.00,,,0.00,Rainwise IP-100,2013-04-03 23:55:00,
2013-04-03 19:00:00,51.0,26.0,30.19,NE,45,10.0,14.0,36,0.00,,,0.00,Rainwise IP-100,2013-04-04 00:00:00,
2013-04-03 19:05:00,50.0,24.0,30.19,NNE,22,7.0,11.0,36,0.00,,,0.00,Rainwise IP-100,2013-04-04 00:05:00,
2013-04-03 19:10:00,50.0,24.0,30.19,NE,45,9.0,12.0,36,0.00,,,0.00,Rainwise IP-100,2013-04-04 00:10:00,
2013-04-03 19:15:00,50.0,24.0,30.19,ENE,67,7.0,14.0,36,0.00,,,0.00,Rainwise IP-100,2013-04-04 00:15:00,
2013-04-03 19:20:00,50.0,24.0,30.19,NE,45,12.0,13.0,37,0.00,,,0.00,Rainwise IP-100,2013-04-04 00:20:00,
2013-04-03 19:25:00,50.0,24.0,30.19,NE,45,10.0,12.0,37,0.00,,,0.00,Rainwise IP-100,2013-04-04 00:25:00,
2013-04-03 19:30:00,49.0,24.0,30.19,NE,45,12.0,13.0,37,0.00,,,0.00,Rainwise IP-100,2013-04-04 00:30:00,
2013-04-03 19:35:00,49.0,24.0,30.18,ENE,67,10.0,12.0,37,0.00,,,0.00,Rainwise IP-100,2013-04-04 00:35:00,
2013-04-03 19:40:00,49.0,24.0,30.18,NE,45,7.0,13.0,37,0.00,,,0.00,Rainwise IP-100,2013-04-04 00:40:00,
2013-04-03 19:45:00,49.0,24.0,30.20,NE,45,9.0,13.0,37,0.00,,,0.00,Rainwise IP-100,2013-04-04 00:45:00,
2013-04-03 19:50:00,49.0,24.0,30.20,NE,45,10.0,15.0,37,0.00,,,0.00,Rainwise IP-100,2013-04-04 00:50:00,
2013-04-03 19:55:00,49.0,24.0,30.20,NNE,22,11.0,13.0,37,0.00,,,0.00,Rainwise IP-100,2013-04-04 00:55:00,
2013-04-03 20:00:00,49.0,24.0,30.20,NE,45,7.0,14.0,37,0.00,,,0.00,Rainwise IP-100,2013-04-04 01:00:00,
2013-04-03 20:05:00,48.0,24.0,30.20,NNE,22,7.0,13.0,37,0.00,,,0.00,Rainwise IP-100,2013-04-04 01:05:00,
2013-04-03 20:10:00,48.0,24.0,30.20,NE,45,10.0,13.0,37,0.00,,,0.00,Rainwise IP-100,2013-04-04 01:10:00,
2013-04-03 20:15:00,48.0,24.0,30.20,NE,45,5.0,14.0,37,0.00,,,0.00,Rainwise IP-100,2013-04-04 01:15:00,
2013-04-03 20:20:00,48.0,24.0,30.20,NE,45,2.0,10.0,38,0.00,,,0.00,Rainwise IP-100,2013-04-04 01:20:00,
2013-04-03 20:25:00,48.0,24.0,30.20,ENE,67,6.0,10.0,39,0.00,,,0.00,Rainwise IP-100,2013-04-04 01:25:00,
2013-04-03 20:30:00,48.0,24.0,30.20,NE,45,10.0,13.0,38,0.00,,,0.00,Rainwise IP-100,2013-04-04 01:30:00,
2013-04-03 20:35:00,47.0,23.0,30.20,SE,135,4.0,12.0,39,0.00,,,0.00,Rainwise IP-100,2013-04-04 01:35:00,
2013-04-03 20:40:00,47.0,23.0,30.20,NE,45,9.0,12.0,39,0.00,,,0.00,Rainwise IP-100,2013-04-04 01:40:00,
2013-04-03 20:45:00,47.0,24.0,30.20,ENE,67,7.0,15.0,40,0.00,,,0.00,Rainwise IP-100,2013-04-04 01:45:00,
2013-04-03 20:50:00,47.0,23.0,30.20,East,90,6.0,13.0,39,0.00,,,0.00,Rainwise IP-100,2013-04-04 01:50:00,
2013-04-03 20:55:00,47.0,24.0,30.20,NE,45,1.0,15.0,40,0.00,,,0.00,Rainwise IP-100,2013-04-04 01:55:00,
2013-04-03 21:00:00,47.0,23.0,30.20,NE,45,8.0,13.0,39,0.00,,,0.00,Rainwise IP-100,2013-04-04 02:00:00,
2013-04-03 21:05:00,47.0,23.0,30.20,NE,45,8.0,16.0,39,0.00,,,0.00,Rainwise IP-100,2013-04-04 02:05:00,
2013-04-03 21:10:00,47.0,24.0,30.20,NE,45,13.0,15.0,40,0.00,,,0.00,Rainwise IP-100,2013-04-04 02:10:00,
2013-04-03 21:15:00,47.0,23.0,30.20,NE,45,13.0,15.0,39,0.00,,,0.00,Rainwise IP-100,2013-04-04 02:15:00,
2013-04-03 21:20:00,47.0,23.0,30.20,ENE,67,7.0,14.0,39,0.00,,,0.00,Rainwise IP-100,2013-04-04 02:20:00,
2013-04-03 21:25:00,47.0,23.0,30.20,NE,45,12.0,13.0,39,0.00,,,0.00,Rainwise IP-100,2013-04-04 02:25:00,
2013-04-03 21:30:00,47.0,23.0,30.20,ESE,112,6.0,15.0,39,0.00,,,0.00,Rainwise IP-100,2013-04-04 02:30:00,
2013-04-03 21:35:00,47.0,23.0,30.20,East,90,3.0,13.0,39,0.00,,,0.00,Rainwise IP-100,2013-04-04 02:35:00,
2013-04-03 21:40:00,47.0,23.0,30.20,East,90,5.0,13.0,39,0.00,,,0.00,Rainwise IP-100,2013-04-04 02:40:00,
2013-04-03 21:45:00,47.0,23.0,30.21,ENE,67,6.0,12.0,38,0.00,,,0.00,Rainwise IP-100,2013-04-04 02:45:00,
2013-04-03 21:50:00,47.0,23.0,30.21,NNE,22,9.0,13.0,38,0.00,,,0.00,Rainwise IP-100,2013-04-04 02:50:00,
2013-04-03 21:55:00,47.0,23.0,30.21,NNE,22,8.0,12.0,39,0.00,,,0.00,Rainwise IP-100,2013-04-04 02:55:00,
2013-04-03 22:00:00,47.0,23.0,30.21,NNE,22,7.0,14.0,39,0.00,,,0.00,Rainwise IP-100,2013-04-04 03:00:00,
2013-04-03 22:05:00,47.0,23.0,30.21,NE,45,7.0,11.0,39,0.00,,,0.00,Rainwise IP-100,2013-04-04 03:05:00,
2013-04-03 22:10:00,47.0,23.0,30.21,ENE,67,5.0,12.0,38,0.00,,,0.00,Rainwise IP-100,2013-04-04 03:10:00,
2013-04-03 22:15:00,47.0,24.0,30.21,East,90,4.0,13.0,40,0.00,,,0.00,Rainwise IP-100,2013-04-04 03:15:00,
2013-04-03 22:20:00,47.0,23.0,30.21,NNE,22,9.0,12.0,38,0.00,,,0.00,Rainwise IP-100,2013-04-04 03:20:00,
2013-04-03 22:25:00,47.0,23.0,30.21,NNE,22,9.0,10.0,39,0.00,,,0.00,Rainwise IP-100,2013-04-04 03:25:00,
2013-04-03 22:30:00,47.0,23.0,30.21,NE,45,6.0,12.0,38,0.00,,,0.00,Rainwise IP-100,2013-04-04 03:30:00,
2013-04-03 22:35:00,47.0,24.0,30.21,NE,45,7.0,12.0,40,0.00,,,0.00,Rainwise IP-100,2013-04-04 03:35:00,
2013-04-03 22:40:00,46.0,23.0,30.21,NE,45,3.0,12.0,38,0.00,,,0.00,Rainwise IP-100,2013-04-04 03:40:00,
2013-04-03 22:45:00,46.0,23.0,30.21,North,360,3.0,13.0,38,0.00,,,0.00,Rainwise IP-100,2013-04-04 03:45:00,
2013-04-03 22:50:00,46.0,23.0,30.21,NE,45,6.0,13.0,39,0.00,,,0.00,Rainwise IP-100,2013-04-04 03:50:00,
2013-04-03 22:55:00,46.0,23.0,30.20,SE,135,3.0,13.0,39,0.00,,,0.00,Rainwise IP-100,2013-04-04 03:55:00,
2013-04-03 23:00:00,46.0,23.0,30.20,NE,45,8.0,15.0,38,0.00,,,0.00,Rainwise IP-100,2013-04-04 04:00:00,
2013-04-03 23:01:00,46.0,23.0,30.20,NE,45,9.0,15.0,39,0.00,,,0.00,Rainwise IP-100,2013-04-04 04:01:00,
2013-04-03 23:06:00,46.0,23.0,30.21,NE,45,10.0,12.0,39,0.00,,,0.00,Rainwise IP-100,2013-04-04 04:06:00,
2013-04-03 23:11:00,46.0,23.0,30.21,ENE,67,5.0,14.0,38,0.00,,,0.00,Rainwise IP-100,2013-04-04 04:11:00,
2013-04-03 23:16:00,46.0,23.0,30.21,ENE,67,9.0,13.0,40,0.00,,,0.00,Rainwise IP-100,2013-04-04 04:16:00,
2013-04-03 23:21:00,46.0,23.0,30.21,NE,45,7.0,13.0,40,0.00,,,0.00,Rainwise IP-100,2013-04-04 04:21:00,
2013-04-03 23:26:00,46.0,23.0,30.20,NE,45,13.0,16.0,39,0.00,,,0.00,Rainwise IP-100,2013-04-04 04:26:00,
2013-04-03 23:31:00,46.0,24.0,30.20,NE,45,8.0,16.0,41,0.00,,,0.00,Rainwise IP-100,2013-04-04 04:31:00,
2013-04-03 23:37:00,46.0,23.0,30.19,NE,45,6.0,15.0,40,0.00,,,0.00,Rainwise IP-100,2013-04-04 04:37:00,
2013-04-03 23:42:00,46.0,24.0,30.19,NE,45,12.0,16.0,42,0.00,,,0.00,Rainwise IP-100,2013-04-04 04:42:00,
2013-04-03 23:47:00,46.0,24.0,30.19,NE,45,7.0,16.0,42,0.00,,,0.00,Rainwise IP-100,2013-04-04 04:47:00,
2013-04-03 23:52:00,46.0,24.0,30.19,NE,45,7.0,12.0,42,0.00,,,0.00,Rainwise IP-100,2013-04-04 04:52:00,
2013-04-03 23:57:00,45.0,23.0,30.19,NE,45,12.0,17.0,41,0.00,,,0.00,Rainwise IP-100,2013-04-04 04:57:00,